Location: Newark
(3.0500°N, 36.0167°E)
Time: 04:32:43
(UTC+00:00)

A-11 Canister half - Pass Details

Date: 27 August 2019
Orbit: 1527 x 1682 km, 47.3° (Epoch: 20 September)

Event Time Altitude Azimuth Distance (km) Brightness Sun altitude
Rises 17:25:16 0° 310° (NW) 4,902 12.6 -25.9°
Reaches altitude 10° 17:28:33 10° 305° (NW) 3,902 12.0 -26.7°
Maximum altitude 17:38:09 53° 231° (SW) 1,924 9.6 -29.0°
Enters shadow 17:43:52 26° 167° (SSE) 2,774 10.1 -30.4°
Drops below altitude 10° 17:47:31 10° 156° (SSE) 3,793 - -31.3°
Sets 17:50:41 0° 151° (SSE) 4,758 - -32.1°
